Time,TemperatureF,DewpointF,PressureIn,WindDirection,WindDirectionDegrees,WindSpeedMPH,WindSpeedGustMPH,Humidity,HourlyPrecipIn,Conditions,Clouds,dailyrainin,SoftwareType,DateUTC
2013-11-02 00:02:00,74.7,71.6,29.97,NW,306,10.0,15.4,90,0.00,,,-99.99,FreeWX 2.04,2013-11-02 05:02:00,
2013-11-02 00:07:00,74.3,70.2,29.97,NW,308,12.0,15.9,87,0.00,,,-99.99,FreeWX 2.04,2013-11-02 05:07:00,
2013-11-02 00:12:00,74.1,68.2,29.97,NW,313,12.0,18.1,82,0.00,,,-99.99,FreeWX 2.04,2013-11-02 05:12:00,
2013-11-02 00:17:00,74.3,67.6,29.97,NW,318,12.0,17.2,80,0.00,,,-99.99,FreeWX 2.04,2013-11-02 05:17:00,
2013-11-02 00:22:00,74.1,67.1,29.97,NW,324,12.0,20.6,79,0.00,,,-99.99,FreeWX 2.04,2013-11-02 05:22:00,
2013-11-02 00:27:00,73.6,65.1,29.97,NNW,332,14.0,22.8,75,0.00,,,-99.99,FreeWX 2.04,2013-11-02 05:27:00,
2013-11-02 00:32:00,73.4,57.7,29.97,NNW,339,17.0,24.4,58,0.00,,,-99.99,FreeWX 2.04,2013-11-02 05:32:00,
2013-11-02 00:37:00,73.6,53.2,29.97,NNW,343,18.0,24.2,49,0.00,,,-99.99,FreeWX 2.04,2013-11-02 05:37:00,
2013-11-02 00:42:00,73.8,46.6,29.97,NNW,344,19.0,24.8,38,0.00,,,-99.99,FreeWX 2.04,2013-11-02 05:42:00,
2013-11-02 00:47:00,73.9,44.6,29.97,North,351,20.0,25.3,35,0.00,,,-99.99,FreeWX 2.04,2013-11-02 05:47:00,
2013-11-02 00:52:00,73.9,43.0,29.97,North,357,20.0,24.8,33,0.00,,,-99.99,FreeWX 2.04,2013-11-02 05:52:00,
2013-11-02 00:57:00,73.8,40.5,29.97,North,0,19.0,26.6,30,0.00,,,-99.99,FreeWX 2.04,2013-11-02 05:57:00,
2013-11-02 01:02:00,73.6,38.5,30.00,North,1,20.0,24.2,28,0.00,,,-99.99,FreeWX 2.04,2013-11-02 06:02:00,
2013-11-02 01:07:00,73.4,36.5,30.00,North,358,22.0,27.1,26,0.00,,,-99.99,FreeWX 2.04,2013-11-02 06:07:00,
2013-11-02 01:12:00,73.2,36.3,30.00,North,357,22.0,27.1,26,0.00,,,-99.99,FreeWX 2.04,2013-11-02 06:12:00,
2013-11-02 01:17:00,72.9,36.9,30.00,North,0,21.0,24.8,27,0.00,,,-99.99,FreeWX 2.04,2013-11-02 06:17:00,
2013-11-02 01:22:00,72.5,35.6,30.00,North,2,20.0,25.7,26,0.00,,,-99.99,FreeWX 2.04,2013-11-02 06:22:00,
2013-11-02 01:27:00,72.1,34.3,30.00,North,2,21.0,29.1,25,0.00,,,-99.99,FreeWX 2.04,2013-11-02 06:27:00,
2013-11-02 01:32:00,72.0,35.2,30.00,North,358,22.0,25.7,26,0.00,,,-99.99,FreeWX 2.04,2013-11-02 06:32:00,
2013-11-02 01:37:00,71.8,35.1,30.00,North,355,21.0,28.4,26,0.00,,,-99.99,FreeWX 2.04,2013-11-02 06:37:00,
2013-11-02 01:42:00,71.6,34.9,30.00,North,358,21.0,25.7,26,0.00,,,-99.99,FreeWX 2.04,2013-11-02 06:42:00,
2013-11-02 01:47:00,71.2,35.6,30.00,North,357,19.0,21.9,27,0.00,,,-99.99,FreeWX 2.04,2013-11-02 06:47:00,
2013-11-02 01:52:00,70.9,35.2,30.00,North,353,18.0,25.3,27,0.00,,,-99.99,FreeWX 2.04,2013-11-02 06:52:00,
2013-11-02 01:57:00,70.7,35.1,30.00,North,354,19.0,26.6,27,0.00,,,-99.99,FreeWX 2.04,2013-11-02 06:57:00,
2013-11-02 02:02:00,70.5,34.0,30.00,North,358,20.0,24.8,26,0.00,,,-99.99,FreeWX 2.04,2013-11-02 07:02:00,
2013-11-02 02:07:00,70.3,33.8,30.00,North,359,20.0,24.4,26,0.00,,,-99.99,FreeWX 2.04,2013-11-02 07:07:00,
2013-11-02 02:12:00,70.2,33.6,30.00,North,355,20.0,24.4,26,0.00,,,-99.99,FreeWX 2.04,2013-11-02 07:12:00,
2013-11-02 02:17:00,70.0,33.4,30.03,North,357,20.0,24.4,26,0.00,,,-99.99,FreeWX 2.04,2013-11-02 07:17:00,
2013-11-02 02:22:00,69.8,33.4,30.03,North,359,20.0,24.8,26,0.00,,,-99.99,FreeWX 2.04,2013-11-02 07:22:00,
2013-11-02 02:27:00,69.8,34.3,30.03,North,357,20.0,24.2,27,0.00,,,-99.99,FreeWX 2.04,2013-11-02 07:27:00,
2013-11-02 02:32:00,69.6,34.2,30.03,North,358,19.0,24.8,27,0.00,,,-99.99,FreeWX 2.04,2013-11-02 07:32:00,
2013-11-02 02:37:00,69.6,34.2,30.03,North,359,19.0,24.8,27,0.00,,,-99.99,FreeWX 2.04,2013-11-02 07:37:00,
2013-11-02 02:42:00,69.3,34.7,30.03,North,357,19.0,22.8,28,0.00,,,-99.99,FreeWX 2.04,2013-11-02 07:42:00,
2013-11-02 02:47:00,69.1,36.3,30.03,North,356,18.0,22.8,30,0.00,,,-99.99,FreeWX 2.04,2013-11-02 07:47:00,
2013-11-02 02:52:00,69.1,36.3,30.03,North,0,18.0,21.9,30,0.00,,,-99.99,FreeWX 2.04,2013-11-02 07:52:00,
2013-11-02 02:57:00,68.9,36.1,30.03,North,359,19.0,23.7,30,0.00,,,-99.99,FreeWX 2.04,2013-11-02 07:57:00,
2013-11-02 03:02:00,68.7,37.6,30.03,North,358,18.0,21.0,32,0.00,,,-99.99,FreeWX 2.04,2013-11-02 08:02:00,
2013-11-02 03:07:00,68.5,36.0,30.03,North,359,17.0,21.9,30,0.00,,,-99.99,FreeWX 2.04,2013-11-02 08:07:00,
2013-11-02 03:12:00,68.5,37.6,30.03,North,1,17.0,21.9,32,0.00,,,-99.99,FreeWX 2.04,2013-11-02 08:12:00,
2013-11-02 03:17:00,68.4,38.8,30.03,North,357,16.0,19.0,34,0.00,,,-99.99,FreeWX 2.04,2013-11-02 08:17:00,
2013-11-02 03:22:00,68.2,39.6,30.03,NNW,348,14.0,19.0,35,0.00,,,-99.99,FreeWX 2.04,2013-11-02 08:22:00,
2013-11-02 03:27:00,68.0,37.0,30.03,NNW,345,14.0,20.6,32,0.00,,,-99.99,FreeWX 2.04,2013-11-02 08:27:00,
2013-11-02 03:32:00,68.0,40.1,30.03,NNW,346,14.0,18.1,36,0.00,,,-99.99,FreeWX 2.04,2013-11-02 08:32:00,
2013-11-02 03:37:00,67.8,39.9,30.03,NNW,344,14.0,19.9,36,0.00,,,-99.99,FreeWX 2.04,2013-11-02 08:37:00,
2013-11-02 03:42:00,67.6,39.7,30.03,NNW,346,15.0,20.1,36,0.00,,,-99.99,FreeWX 2.04,2013-11-02 08:42:00,
2013-11-02 03:47:00,67.5,40.3,30.03,NNW,348,15.0,19.0,37,0.00,,,-99.99,FreeWX 2.04,2013-11-02 08:47:00,
2013-11-02 03:52:00,67.5,40.3,30.03,North,351,15.0,20.6,37,0.00,,,-99.99,FreeWX 2.04,2013-11-02 08:52:00,
2013-11-02 03:57:00,67.3,40.8,30.03,North,350,15.0,18.6,38,0.00,,,-99.99,FreeWX 2.04,2013-11-02 08:57:00,
2013-11-02 04:02:00,67.1,39.9,30.06,NNW,346,15.0,20.1,37,0.00,,,-99.99,FreeWX 2.04,2013-11-02 09:02:00,
2013-11-02 04:07:00,67.1,39.9,30.06,North,349,16.0,21.0,37,0.00,,,-99.99,FreeWX 2.04,2013-11-02 09:07:00,
2013-11-02 04:12:00,67.1,40.6,30.06,NNW,348,16.0,20.6,38,0.00,,,-99.99,FreeWX 2.04,2013-11-02 09:12:00,
2013-11-02 04:17:00,66.9,40.5,30.06,NNW,346,17.0,23.7,38,0.00,,,-99.99,FreeWX 2.04,2013-11-02 09:17:00,
2013-11-02 04:22:00,66.9,40.5,30.06,NNW,347,17.0,21.5,38,0.00,,,-99.99,FreeWX 2.04,2013-11-02 09:22:00,
2013-11-02 04:27:00,66.7,41.0,30.06,NNW,341,16.0,21.5,39,0.00,,,-99.99,FreeWX 2.04,2013-11-02 09:27:00,
2013-11-02 04:32:00,66.7,41.7,30.06,NNW,340,15.0,19.5,40,0.00,,,-99.99,FreeWX 2.04,2013-11-02 09:32:00,
2013-11-02 04:38:00,66.6,41.5,30.06,NNW,346,15.0,20.6,40,0.00,,,-99.99,FreeWX 2.04,2013-11-02 09:38:00,
2013-11-02 04:43:00,66.6,41.5,30.06,North,349,16.0,22.8,40,0.00,,,-99.99,FreeWX 2.04,2013-11-02 09:43:00,
2013-11-02 04:48:00,66.6,40.8,30.06,North,354,17.0,22.8,39,0.00,,,-99.99,FreeWX 2.04,2013-11-02 09:48:00,
2013-11-02 04:53:00,66.6,40.8,30.06,North,356,18.0,21.5,39,0.00,,,-99.99,FreeWX 2.04,2013-11-02 09:53:00,
2013-11-02 04:58:00,66.6,40.1,30.06,North,354,18.0,25.3,38,0.00,,,-99.99,FreeWX 2.04,2013-11-02 09:58:00,
2013-11-02 05:03:00,66.6,40.1,30.06,North,356,19.0,24.4,38,0.00,,,-99.99,FreeWX 2.04,2013-11-02 10:03:00,
2013-11-02 05:08:00,66.6,39.6,30.06,North,0,20.0,25.7,37,0.00,,,-99.99,FreeWX 2.04,2013-11-02 10:08:00,
2013-11-02 05:13:00,66.6,40.1,30.06,North,359,19.0,22.8,38,0.00,,,-99.99,FreeWX 2.04,2013-11-02 10:13:00,
2013-11-02 05:18:00,66.6,39.6,30.06,North,1,18.0,26.2,37,0.00,,,-99.99,FreeWX 2.04,2013-11-02 10:18:00,
2013-11-02 05:23:00,66.6,38.8,30.06,North,1,19.0,22.8,36,0.00,,,-99.99,FreeWX 2.04,2013-11-02 10:23:00,
2013-11-02 05:28:00,66.6,38.8,30.06,North,356,19.0,21.9,36,0.00,,,-99.99,FreeWX 2.04,2013-11-02 10:28:00,
2013-11-02 05:33:00,66.4,38.7,30.06,North,351,19.0,22.8,36,0.00,,,-99.99,FreeWX 2.04,2013-11-02 10:33:00,
2013-11-02 05:38:00,66.2,37.8,30.06,North,352,19.0,24.4,35,0.00,,,-99.99,FreeWX 2.04,2013-11-02 10:38:00,
2013-11-02 05:43:00,66.2,39.2,30.06,North,356,19.0,22.4,37,0.00,,,-99.99,FreeWX 2.04,2013-11-02 10:43:00,
2013-11-02 05:48:00,66.0,39.0,30.09,North,357,17.0,23.3,37,0.00,,,-99.99,FreeWX 2.04,2013-11-02 10:48:00,
2013-11-02 05:53:00,66.0,39.0,30.09,North,355,18.0,23.3,37,0.00,,,-99.99,FreeWX 2.04,2013-11-02 10:53:00,
2013-11-02 05:58:00,65.8,39.6,30.09,North,355,18.0,22.4,38,0.00,,,-99.99,FreeWX 2.04,2013-11-02 10:58:00,
2013-11-02 06:03:00,65.7,38.7,30.09,North,356,19.0,24.2,37,0.00,,,-99.99,FreeWX 2.04,2013-11-02 11:03:00,
2013-11-02 06:08:00,65.7,39.4,30.09,North,353,19.0,22.4,38,0.00,,,-99.99,FreeWX 2.04,2013-11-02 11:08:00,
2013-11-02 06:13:00,65.5,39.2,30.09,North,356,19.0,22.8,38,0.00,,,-99.99,FreeWX 2.04,2013-11-02 11:13:00,
2013-11-02 06:18:00,65.3,39.0,30.09,North,0,18.0,22.8,38,0.00,,,-99.99,FreeWX 2.04,2013-11-02 11:18:00,
2013-11-02 06:23:00,65.1,38.1,30.09,North,358,20.0,26.6,37,0.00,,,-99.99,FreeWX 2.04,2013-11-02 11:23:00,
2013-11-02 06:28:00,64.9,38.7,30.09,North,355,21.0,24.4,38,0.00,,,-99.99,FreeWX 2.04,2013-11-02 11:28:00,
2013-11-02 06:33:00,64.9,38.7,30.09,North,351,21.0,26.2,38,0.00,,,-99.99,FreeWX 2.04,2013-11-02 11:33:00,
2013-11-02 06:38:00,64.6,38.5,30.09,North,349,20.0,24.8,38,0.00,,,-99.99,FreeWX 2.04,2013-11-02 11:38:00,
2013-11-02 06:43:00,64.4,39.6,30.09,North,352,19.0,23.7,40,0.00,,,-99.99,FreeWX 2.04,2013-11-02 11:43:00,
2013-11-02 06:48:00,64.2,38.7,30.12,North,356,20.0,25.7,39,0.00,,,-99.99,FreeWX 2.04,2013-11-02 11:48:00,
2013-11-02 06:53:00,64.0,38.7,30.12,North,354,21.0,25.3,39,0.00,,,-99.99,FreeWX 2.04,2013-11-02 11:53:00,
2013-11-02 06:58:00,63.9,37.8,30.12,North,352,21.0,27.5,38,0.00,,,-99.99,FreeWX 2.04,2013-11-02 11:58:00,
2013-11-02 07:03:00,63.7,38.3,30.12,North,355,21.0,24.8,39,0.00,,,-99.99,FreeWX 2.04,2013-11-02 12:03:00,
2013-11-02 07:08:00,63.5,38.1,30.12,North,358,20.0,24.8,39,0.00,,,-99.99,FreeWX 2.04,2013-11-02 12:08:00,
2013-11-02 07:13:00,63.5,38.7,30.12,North,359,19.0,23.3,40,0.00,,,-99.99,FreeWX 2.04,2013-11-02 12:13:00,
2013-11-02 07:18:00,63.3,38.7,30.12,North,356,18.0,24.4,40,0.00,,,-99.99,FreeWX 2.04,2013-11-02 12:18:00,
2013-11-02 07:23:00,63.5,39.4,30.12,North,356,19.0,25.3,41,0.00,,,-99.99,FreeWX 2.04,2013-11-02 12:23:00,
2013-11-02 07:28:00,63.3,39.9,30.12,North,359,17.0,22.4,42,0.00,,,-99.99,FreeWX 2.04,2013-11-02 12:28:00,
2013-11-02 07:33:00,63.3,38.7,30.12,North,2,17.0,23.3,40,0.00,,,-99.99,FreeWX 2.04,2013-11-02 12:33:00,
2013-11-02 07:38:00,63.1,37.8,30.12,North,3,18.0,22.4,39,0.00,,,-99.99,FreeWX 2.04,2013-11-02 12:38:00,
2013-11-02 07:43:00,63.1,38.5,30.12,North,3,19.0,23.7,40,0.00,,,-99.99,FreeWX 2.04,2013-11-02 12:43:00,
2013-11-02 07:48:00,63.1,39.0,30.15,North,4,18.0,21.0,41,0.00,,,-99.99,FreeWX 2.04,2013-11-02 12:48:00,
2013-11-02 07:53:00,63.1,37.8,30.15,North,5,17.0,22.4,39,0.00,,,-99.99,FreeWX 2.04,2013-11-02 12:53:00,
2013-11-02 07:58:00,63.3,38.7,30.15,North,5,18.0,23.7,40,0.00,,,-99.99,FreeWX 2.04,2013-11-02 12:58:00,
2013-11-02 08:03:00,63.3,37.9,30.15,North,7,17.0,24.2,39,0.00,,,-99.99,FreeWX 2.04,2013-11-02 13:03:00,
2013-11-02 08:08:00,63.3,37.9,30.15,North,7,18.0,24.4,39,0.00,,,-99.99,FreeWX 2.04,2013-11-02 13:08:00,
2013-11-02 08:13:00,63.3,37.9,30.15,North,8,19.0,25.7,39,0.00,,,-99.99,FreeWX 2.04,2013-11-02 13:13:00,
2013-11-02 08:18:00,63.3,37.9,30.15,North,8,19.0,27.1,39,0.00,,,-99.99,FreeWX 2.04,2013-11-02 13:18:00,
2013-11-02 08:23:00,63.1,37.8,30.15,North,9,18.0,22.8,39,0.00,,,-99.99,FreeWX 2.04,2013-11-02 13:23:00,
2013-11-02 08:28:00,63.1,37.8,30.15,North,11,17.0,21.9,39,0.00,,,-99.99,FreeWX 2.04,2013-11-02 13:28:00,
2013-11-02 08:33:00,63.1,37.8,30.15,North,8,18.0,24.2,39,0.00,,,-99.99,FreeWX 2.04,2013-11-02 13:33:00,
2013-11-02 08:38:00,63.1,37.0,30.15,North,9,18.0,25.3,38,0.00,,,-99.99,FreeWX 2.04,2013-11-02 13:38:00,
2013-11-02 08:43:00,63.1,37.0,30.15,North,10,18.0,26.6,38,0.00,,,-99.99,FreeWX 2.04,2013-11-02 13:43:00,
2013-11-02 08:48:00,63.1,37.0,30.15,North,6,18.0,22.4,38,0.00,,,-99.99,FreeWX 2.04,2013-11-02 13:48:00,
2013-11-02 08:53:00,63.1,37.0,30.15,North,6,18.0,23.3,38,0.00,,,-99.99,FreeWX 2.04,2013-11-02 13:53:00,
2013-11-02 08:58:00,63.1,37.0,30.15,North,8,18.0,24.2,38,0.00,,,-99.99,FreeWX 2.04,2013-11-02 13:58:00,
2013-11-02 09:03:00,63.1,36.5,30.18,North,8,18.0,24.2,37,0.00,,,-99.99,FreeWX 2.04,2013-11-02 14:03:00,
2013-11-02 09:08:00,63.1,36.5,30.18,North,9,18.0,22.4,37,0.00,,,-99.99,FreeWX 2.04,2013-11-02 14:08:00,
2013-11-02 09:13:00,63.1,36.5,30.18,North,10,18.0,26.2,37,0.00,,,-99.99,FreeWX 2.04,2013-11-02 14:13:00,
2013-11-02 09:18:00,63.3,36.7,30.18,North,10,19.0,26.2,37,0.00,,,-99.99,FreeWX 2.04,2013-11-02 14:18:00,
2013-11-02 09:23:00,63.3,36.7,30.18,North,6,19.0,23.3,37,0.00,,,-99.99,FreeWX 2.04,2013-11-02 14:23:00,
2013-11-02 09:28:00,63.3,35.2,30.18,North,4,19.0,24.8,35,0.00,,,-99.99,FreeWX 2.04,2013-11-02 14:28:00,
2013-11-02 09:33:00,63.5,36.7,30.18,North,7,17.0,21.0,37,0.00,,,-99.99,FreeWX 2.04,2013-11-02 14:33:00,
2013-11-02 09:38:00,63.5,36.7,30.18,North,9,17.0,23.7,37,0.00,,,-99.99,FreeWX 2.04,2013-11-02 14:38:00,
2013-11-02 09:43:00,63.5,36.7,30.18,North,6,17.0,22.8,37,0.00,,,-99.99,FreeWX 2.04,2013-11-02 14:43:00,
2013-11-02 09:48:00,63.7,36.9,30.18,North,3,17.0,22.8,37,0.00,,,-99.99,FreeWX 2.04,2013-11-02 14:48:00,
2013-11-02 09:53:00,63.9,36.3,30.18,North,6,18.0,24.2,36,0.00,,,-99.99,FreeWX 2.04,2013-11-02 14:53:00,
2013-11-02 09:58:00,64.2,37.4,30.18,North,5,18.0,26.2,37,0.00,,,-99.99,FreeWX 2.04,2013-11-02 14:58:00,
2013-11-02 10:03:00,64.4,33.1,30.18,North,6,18.0,23.7,31,0.00,,,-99.99,FreeWX 2.04,2013-11-02 15:03:00,
2013-11-02 10:08:00,64.8,32.5,30.18,NNE,12,19.0,24.4,30,0.00,,,-99.99,FreeWX 2.04,2013-11-02 15:08:00,
2013-11-02 10:13:00,64.9,32.0,30.18,North,10,19.0,26.6,29,0.00,,,-99.99,FreeWX 2.04,2013-11-02 15:13:00,
2013-11-02 10:18:00,65.3,33.1,30.21,North,6,19.0,23.7,30,0.00,,,-99.99,FreeWX 2.04,2013-11-02 15:18:00,
2013-11-02 10:23:00,65.5,31.5,30.21,North,6,19.0,27.1,28,0.00,,,-99.99,FreeWX 2.04,2013-11-02 15:23:00,
2013-11-02 10:28:00,65.7,30.7,30.21,North,7,21.0,26.2,27,0.00,,,-99.99,FreeWX 2.04,2013-11-02 15:28:00,
2013-11-02 10:33:00,65.7,30.7,30.21,North,9,20.0,27.1,27,0.00,,,-99.99,FreeWX 2.04,2013-11-02 15:33:00,
2013-11-02 10:38:00,65.8,30.9,30.21,North,9,19.0,26.6,27,0.00,,,-99.99,FreeWX 2.04,2013-11-02 15:38:00,
2013-11-02 10:43:00,66.0,31.1,30.21,North,9,19.0,24.8,27,0.00,,,-99.99,FreeWX 2.04,2013-11-02 15:43:00,
2013-11-02 10:48:00,66.2,31.3,30.21,North,9,21.0,28.6,27,0.00,,,-99.99,FreeWX 2.04,2013-11-02 15:48:00,
2013-11-02 10:53:00,66.2,30.4,30.21,North,11,20.0,24.8,26,0.00,,,-99.99,FreeWX 2.04,2013-11-02 15:53:00,
2013-11-02 10:58:00,66.4,31.5,30.21,North,11,18.0,23.3,27,0.00,,,-99.99,FreeWX 2.04,2013-11-02 15:58:00,
2013-11-02 11:03:00,66.7,30.7,30.21,North,10,17.0,21.5,26,0.00,,,-99.99,FreeWX 2.04,2013-11-02 16:03:00,
2013-11-02 11:08:00,66.9,27.9,30.21,North,8,19.0,27.5,23,0.00,,,-99.99,FreeWX 2.04,2013-11-02 16:08:00,
2013-11-02 11:13:00,67.1,31.1,30.21,North,3,21.0,26.6,26,0.00,,,-99.99,FreeWX 2.04,2013-11-02 16:13:00,
2013-11-02 11:18:00,67.3,28.2,30.21,North,6,20.0,25.3,23,0.00,,,-99.99,FreeWX 2.04,2013-11-02 16:18:00,
2013-11-02 11:23:00,67.5,26.2,30.21,North,8,21.0,29.5,21,0.00,,,-99.99,FreeWX 2.04,2013-11-02 16:23:00,
2013-11-02 11:28:00,67.6,28.6,30.21,North,10,21.0,24.8,23,0.00,,,-99.99,FreeWX 2.04,2013-11-02 16:28:00,
2013-11-02 11:33:00,67.6,26.2,30.21,North,8,20.0,24.2,21,0.00,,,-99.99,FreeWX 2.04,2013-11-02 16:33:00,
2013-11-02 11:38:00,67.8,28.6,30.21,North,4,20.0,25.7,23,0.00,,,-99.99,FreeWX 2.04,2013-11-02 16:38:00,
2013-11-02 11:43:00,68.0,28.8,30.21,North,4,20.0,25.3,23,0.00,,,-99.99,FreeWX 2.04,2013-11-02 16:43:00,
2013-11-02 11:48:00,68.2,28.9,30.21,North,8,19.0,23.7,23,0.00,,,-99.99,FreeWX 2.04,2013-11-02 16:48:00,
2013-11-02 11:53:00,68.4,29.1,30.21,North,6,19.0,26.6,23,0.00,,,-99.99,FreeWX 2.04,2013-11-02 16:53:00,
2013-11-02 11:58:00,68.5,29.3,30.21,North,6,18.0,21.0,23,0.00,,,-99.99,FreeWX 2.04,2013-11-02 16:58:00,
2013-11-02 12:03:00,68.9,29.7,30.21,North,9,16.0,21.9,23,0.00,,,-99.99,FreeWX 2.04,2013-11-02 17:03:00,
2013-11-02 12:08:00,69.1,29.7,30.21,North,7,16.0,21.5,23,0.00,,,-99.99,FreeWX 2.04,2013-11-02 17:08:00,
2013-11-02 12:13:00,69.1,26.2,30.21,North,7,17.0,23.3,20,0.00,,,-99.99,FreeWX 2.04,2013-11-02 17:13:00,
2013-11-02 12:18:00,69.3,26.4,30.21,North,10,18.0,23.3,20,0.00,,,-99.99,FreeWX 2.04,2013-11-02 17:18:00,
2013-11-02 12:23:00,69.3,26.4,30.21,North,9,18.0,23.7,20,0.00,,,-99.99,FreeWX 2.04,2013-11-02 17:23:00,
2013-11-02 12:28:00,69.4,26.6,30.21,North,9,18.0,22.8,20,0.00,,,-99.99,FreeWX 2.04,2013-11-02 17:28:00,
2013-11-02 12:33:00,69.4,26.6,30.21,North,7,18.0,22.8,20,0.00,,,-99.99,FreeWX 2.04,2013-11-02 17:33:00,
2013-11-02 12:38:00,69.8,27.0,30.21,North,2,18.0,24.4,20,0.00,,,-99.99,FreeWX 2.04,2013-11-02 17:38:00,
2013-11-02 12:43:00,70.0,27.1,30.21,North,1,18.0,23.3,20,0.00,,,-99.99,FreeWX 2.04,2013-11-02 17:43:00,
2013-11-02 12:48:00,70.2,27.1,30.21,North,2,17.0,22.8,20,0.00,,,-99.99,FreeWX 2.04,2013-11-02 17:48:00,
2013-11-02 12:53:00,70.2,27.1,30.21,North,4,17.0,21.9,20,0.00,,,-99.99,FreeWX 2.04,2013-11-02 17:53:00,
2013-11-02 12:58:00,70.3,24.8,30.21,North,11,17.0,21.9,18,0.00,,,-99.99,FreeWX 2.04,2013-11-02 17:58:00,
2013-11-02 13:03:00,70.5,25.0,30.21,North,8,18.0,23.3,18,0.00,,,-99.99,FreeWX 2.04,2013-11-02 18:03:00,
2013-11-02 13:08:00,70.7,27.7,30.21,North,356,18.0,22.4,20,0.00,,,-99.99,FreeWX 2.04,2013-11-02 18:08:00,
2013-11-02 13:13:00,70.7,25.2,30.21,North,357,17.0,23.7,18,0.00,,,-99.99,FreeWX 2.04,2013-11-02 18:13:00,
2013-11-02 13:18:00,71.1,25.3,30.18,North,1,17.0,20.6,18,0.00,,,-99.99,FreeWX 2.04,2013-11-02 18:18:00,
2013-11-02 13:23:00,71.2,28.0,30.18,North,356,16.0,22.8,20,0.00,,,-99.99,FreeWX 2.04,2013-11-02 18:23:00,
2013-11-02 13:28:00,71.4,25.7,30.18,North,356,16.0,20.1,18,0.00,,,-99.99,FreeWX 2.04,2013-11-02 18:28:00,
2013-11-02 13:33:00,71.6,25.9,30.18,North,3,16.0,21.0,18,0.00,,,-99.99,FreeWX 2.04,2013-11-02 18:33:00,
2013-11-02 13:38:00,71.6,24.4,30.18,North,6,16.0,20.1,17,0.00,,,-99.99,FreeWX 2.04,2013-11-02 18:38:00,
2013-11-02 13:43:00,71.8,24.6,30.18,North,356,15.0,19.0,17,0.00,,,-99.99,FreeWX 2.04,2013-11-02 18:43:00,
2013-11-02 13:48:00,72.0,24.8,30.18,North,359,14.0,20.1,17,0.00,,,-99.99,FreeWX 2.04,2013-11-02 18:48:00,
2013-11-02 13:53:00,72.1,25.0,30.18,North,5,15.0,20.6,17,0.00,,,-99.99,FreeWX 2.04,2013-11-02 18:53:00,
2013-11-02 13:58:00,72.1,25.0,30.18,North,2,14.0,18.6,17,0.00,,,-99.99,FreeWX 2.04,2013-11-02 18:58:00,
2013-11-02 14:03:00,72.3,25.0,30.15,North,0,14.0,18.6,17,0.00,,,-99.99,FreeWX 2.04,2013-11-02 19:03:00,
2013-11-02 14:08:00,72.5,25.2,30.15,North,359,14.0,18.1,17,0.00,,,-99.99,FreeWX 2.04,2013-11-02 19:08:00,
2013-11-02 14:13:00,72.7,25.3,30.15,North,358,14.0,18.6,17,0.00,,,-99.99,FreeWX 2.04,2013-11-02 19:13:00,
2013-11-02 14:18:00,72.9,25.5,30.15,North,358,13.0,16.8,17,0.00,,,-99.99,FreeWX 2.04,2013-11-02 19:18:00,
2013-11-02 14:23:00,73.2,25.7,30.15,North,2,13.0,18.6,17,0.00,,,-99.99,FreeWX 2.04,2013-11-02 19:23:00,
2013-11-02 14:28:00,73.2,25.7,30.15,North,4,14.0,18.1,17,0.00,,,-99.99,FreeWX 2.04,2013-11-02 19:28:00,
2013-11-02 14:33:00,73.4,25.9,30.15,North,3,14.0,17.2,17,0.00,,,-99.99,FreeWX 2.04,2013-11-02 19:33:00,
2013-11-02 14:38:00,73.4,25.9,30.15,North,9,13.0,16.3,17,0.00,,,-99.99,FreeWX 2.04,2013-11-02 19:38:00,
2013-11-02 14:43:00,73.6,26.1,30.15,North,1,13.0,17.2,17,0.00,,,-99.99,FreeWX 2.04,2013-11-02 19:43:00,
2013-11-02 14:48:00,73.8,26.2,30.15,North,1,12.0,15.4,17,0.00,,,-99.99,FreeWX 2.04,2013-11-02 19:48:00,
2013-11-02 14:53:00,73.9,26.4,30.15,North,9,12.0,17.7,17,0.00,,,-99.99,FreeWX 2.04,2013-11-02 19:53:00,
2013-11-02 14:58:00,74.1,26.6,30.15,North,5,14.0,17.2,17,0.00,,,-99.99,FreeWX 2.04,2013-11-02 19:58:00,
2013-11-02 15:03:00,74.1,26.6,30.12,North,6,14.0,19.9,17,0.00,,,-99.99,FreeWX 2.04,2013-11-02 20:03:00,
2013-11-02 15:08:00,74.1,26.6,30.12,North,7,14.0,19.0,17,0.00,,,-99.99,FreeWX 2.04,2013-11-02 20:08:00,
2013-11-02 15:13:00,74.1,26.6,30.12,North,6,14.0,19.9,17,0.00,,,-99.99,FreeWX 2.04,2013-11-02 20:13:00,
2013-11-02 15:18:00,74.3,26.6,30.15,North,6,15.0,18.6,17,0.00,,,-99.99,FreeWX 2.04,2013-11-02 20:18:00,
2013-11-02 15:23:00,74.3,26.6,30.15,North,8,14.0,21.5,17,0.00,,,-99.99,FreeWX 2.04,2013-11-02 20:23:00,
2013-11-02 15:28:00,74.1,26.6,30.15,North,9,14.0,19.9,17,0.00,,,-99.99,FreeWX 2.04,2013-11-02 20:28:00,
2013-11-02 15:33:00,74.1,26.6,30.12,NNE,12,14.0,19.5,17,0.00,,,-99.99,FreeWX 2.04,2013-11-02 20:33:00,
2013-11-02 15:38:00,74.1,26.6,30.12,NNE,12,14.0,19.5,17,0.00,,,-99.99,FreeWX 2.04,2013-11-02 20:38:00,
2013-11-02 15:43:00,74.1,26.6,30.12,North,10,14.0,19.5,17,0.00,,,-99.99,FreeWX 2.04,2013-11-02 20:43:00,
2013-11-02 15:48:00,74.1,26.6,30.12,North,6,14.0,19.5,17,0.00,,,-99.99,FreeWX 2.04,2013-11-02 20:48:00,
2013-11-02 15:53:00,74.1,26.6,30.12,North,8,14.0,19.5,17,0.00,,,-99.99,FreeWX 2.04,2013-11-02 20:53:00,
2013-11-02 15:58:00,74.1,26.6,30.12,North,10,14.0,20.6,17,0.00,,,-99.99,FreeWX 2.04,2013-11-02 20:58:00,
2013-11-02 16:03:00,74.1,26.6,30.12,North,10,16.0,20.6,17,0.00,,,-99.99,FreeWX 2.04,2013-11-02 21:03:00,
2013-11-02 16:08:00,73.9,26.4,30.12,NNE,20,15.0,19.9,17,0.00,,,-99.99,FreeWX 2.04,2013-11-02 21:08:00,
2013-11-02 16:13:00,73.8,26.2,30.12,NNE,23,14.0,21.5,17,0.00,,,-99.99,FreeWX 2.04,2013-11-02 21:13:00,
2013-11-02 16:18:00,73.8,26.2,30.12,NNE,14,14.0,20.6,17,0.00,,,-99.99,FreeWX 2.04,2013-11-02 21:18:00,
2013-11-02 16:23:00,73.8,26.2,30.12,NNE,12,14.0,19.0,17,0.00,,,-99.99,FreeWX 2.04,2013-11-02 21:23:00,
2013-11-02 16:28:00,73.6,26.1,30.12,NNE,22,13.0,19.9,17,0.00,,,-99.99,FreeWX 2.04,2013-11-02 21:28:00,
2013-11-02 16:34:00,73.6,26.1,30.12,NNE,26,13.0,19.0,17,0.00,,,-99.99,FreeWX 2.04,2013-11-02 21:34:00,
2013-11-02 16:39:00,73.4,25.9,30.12,NNE,26,13.0,19.0,17,0.00,,,-99.99,FreeWX 2.04,2013-11-02 21:39:00,
2013-11-02 16:44:00,73.4,25.9,30.12,NNE,22,13.0,18.6,17,0.00,,,-99.99,FreeWX 2.04,2013-11-02 21:44:00,
2013-11-02 16:49:00,73.4,25.9,30.12,NNE,20,13.0,19.0,17,0.00,,,-99.99,FreeWX 2.04,2013-11-02 21:49:00,
2013-11-02 16:54:00,73.2,25.7,30.12,NNE,27,12.0,18.6,17,0.00,,,-99.99,FreeWX 2.04,2013-11-02 21:54:00,
2013-11-02 16:59:00,73.2,25.7,30.12,NNE,24,11.0,16.8,17,0.00,,,-99.99,FreeWX 2.04,2013-11-02 21:59:00,
2013-11-02 17:04:00,73.0,25.7,30.12,NNE,19,13.0,19.9,17,0.00,,,-99.99,FreeWX 2.04,2013-11-02 22:04:00,
2013-11-02 17:09:00,73.0,25.7,30.12,NNE,23,12.0,16.3,17,0.00,,,-99.99,FreeWX 2.04,2013-11-02 22:09:00,
2013-11-02 17:14:00,73.0,25.7,30.12,NNE,29,11.0,15.9,17,0.00,,,-99.99,FreeWX 2.04,2013-11-02 22:14:00,
2013-11-02 17:19:00,73.0,25.7,30.12,NNE,28,12.0,19.5,17,0.00,,,-99.99,FreeWX 2.04,2013-11-02 22:19:00,
2013-11-02 17:24:00,72.9,25.5,30.12,NNE,23,13.0,17.2,17,0.00,,,-99.99,FreeWX 2.04,2013-11-02 22:24:00,
2013-11-02 17:29:00,72.7,25.3,30.12,NNE,25,12.0,15.9,17,0.00,,,-99.99,FreeWX 2.04,2013-11-02 22:29:00,
2013-11-02 17:34:00,72.7,25.3,30.12,NNE,24,12.0,16.8,17,0.00,,,-99.99,FreeWX 2.04,2013-11-02 22:34:00,
2013-11-02 17:39:00,72.5,25.2,30.12,NNE,18,13.0,18.6,17,0.00,,,-99.99,FreeWX 2.04,2013-11-02 22:39:00,
2013-11-02 17:44:00,72.3,25.0,30.12,NNE,16,13.0,18.1,17,0.00,,,-99.99,FreeWX 2.04,2013-11-02 22:44:00,
2013-11-02 17:49:00,72.1,25.0,30.12,NNE,16,12.0,16.8,17,0.00,,,-99.99,FreeWX 2.04,2013-11-02 22:49:00,
2013-11-02 17:54:00,72.1,25.0,30.12,NNE,16,12.0,17.7,17,0.00,,,-99.99,FreeWX 2.04,2013-11-02 22:54:00,
2013-11-02 17:59:00,72.1,25.0,30.12,NNE,15,12.0,14.3,17,0.00,,,-99.99,FreeWX 2.04,2013-11-02 22:59:00,
2013-11-02 18:04:00,72.0,24.8,30.12,NNE,19,11.0,15.2,17,0.00,,,-99.99,FreeWX 2.04,2013-11-02 23:04:00,
2013-11-02 18:09:00,71.6,24.4,30.12,NNE,18,11.0,17.2,17,0.00,,,-99.99,FreeWX 2.04,2013-11-02 23:09:00,
2013-11-02 18:14:00,71.4,25.7,30.12,NNE,14,12.0,16.3,18,0.00,,,-99.99,FreeWX 2.04,2013-11-02 23:14:00,
2013-11-02 18:19:00,71.2,25.5,30.12,NNE,20,12.0,16.8,18,0.00,,,-99.99,FreeWX 2.04,2013-11-02 23:19:00,
2013-11-02 18:24:00,71.1,25.3,30.12,NNE,21,12.0,16.8,18,0.00,,,-99.99,FreeWX 2.04,2013-11-02 23:24:00,
2013-11-02 18:29:00,70.7,25.2,30.12,NNE,15,11.0,13.0,18,0.00,,,-99.99,FreeWX 2.04,2013-11-02 23:29:00,
2013-11-02 18:34:00,70.3,24.8,30.12,NNE,15,9.0,13.4,18,0.00,,,-99.99,FreeWX 2.04,2013-11-02 23:34:00,
2013-11-02 18:39:00,70.2,24.6,30.12,NNE,17,9.0,12.5,18,0.00,,,-99.99,FreeWX 2.04,2013-11-02 23:39:00,
2013-11-02 18:44:00,69.8,24.4,30.15,NNE,19,9.0,12.5,18,0.00,,,-99.99,FreeWX 2.04,2013-11-02 23:44:00,
2013-11-02 18:49:00,69.4,24.1,30.15,NNE,23,8.0,11.6,18,0.00,,,-99.99,FreeWX 2.04,2013-11-02 23:49:00,
2013-11-02 18:54:00,69.3,23.9,30.15,NNE,30,9.0,15.4,18,0.00,,,-99.99,FreeWX 2.04,2013-11-02 23:54:00,
2013-11-02 18:59:00,69.1,23.7,30.15,NE,36,10.0,15.2,18,0.00,,,-99.99,FreeWX 2.04,2013-11-02 23:59:00,
2013-11-02 19:04:00,68.9,23.7,30.15,NE,38,10.0,13.4,18,0.00,,,-99.99,FreeWX 2.04,2013-11-03 00:04:00,
2013-11-02 19:09:00,68.7,23.5,30.15,NE,43,8.0,12.1,18,0.00,,,-99.99,FreeWX 2.04,2013-11-03 00:09:00,
2013-11-02 19:14:00,68.5,23.4,30.15,NE,47,7.0,11.0,18,0.00,,,-99.99,FreeWX 2.04,2013-11-03 00:14:00,
2013-11-02 19:19:00,68.2,25.5,30.15,NE,45,6.0,10.5,20,0.00,,,-99.99,FreeWX 2.04,2013-11-03 00:19:00,
2013-11-02 19:24:00,68.0,26.6,30.15,NE,43,7.0,10.5,21,0.00,,,-99.99,FreeWX 2.04,2013-11-03 00:24:00,
2013-11-02 19:29:00,67.6,26.2,30.15,NE,40,7.0,10.5,21,0.00,,,-99.99,FreeWX 2.04,2013-11-03 00:29:00,
2013-11-02 19:34:00,67.5,26.2,30.15,NE,39,7.0,10.5,21,0.00,,,-99.99,FreeWX 2.04,2013-11-03 00:34:00,
2013-11-02 19:39:00,67.1,28.0,30.15,NE,34,7.0,8.7,23,0.00,,,-99.99,FreeWX 2.04,2013-11-03 00:39:00,
2013-11-02 19:44:00,66.9,27.9,30.15,NNE,31,6.0,9.6,23,0.00,,,-99.99,FreeWX 2.04,2013-11-03 00:44:00,
2013-11-02 19:49:00,66.6,27.7,30.15,NNE,32,7.0,9.6,23,0.00,,,-99.99,FreeWX 2.04,2013-11-03 00:49:00,
2013-11-02 19:54:00,66.4,27.5,30.15,NNE,30,6.0,8.3,23,0.00,,,-99.99,FreeWX 2.04,2013-11-03 00:54:00,
2013-11-02 19:59:00,66.0,28.2,30.15,NNE,30,6.0,10.1,24,0.00,,,-99.99,FreeWX 2.04,2013-11-03 00:59:00,
2013-11-02 20:04:00,65.8,28.0,30.15,NNE,31,6.0,9.6,24,0.00,,,-99.99,FreeWX 2.04,2013-11-03 01:04:00,
2013-11-02 20:09:00,65.8,30.0,30.15,NNE,33,7.0,10.1,26,0.00,,,-99.99,FreeWX 2.04,2013-11-03 01:09:00,
2013-11-02 20:14:00,65.8,30.0,30.15,NNE,31,7.0,9.2,26,0.00,,,-99.99,FreeWX 2.04,2013-11-03 01:14:00,
2013-11-02 20:19:00,65.7,29.8,30.15,NNE,28,7.0,9.6,26,0.00,,,-99.99,FreeWX 2.04,2013-11-03 01:19:00,
2013-11-02 20:24:00,65.5,30.6,30.15,NNE,32,7.0,8.7,27,0.00,,,-99.99,FreeWX 2.04,2013-11-03 01:24:00,
2013-11-02 20:29:00,65.5,30.6,30.18,NE,35,7.0,9.2,27,0.00,,,-99.99,FreeWX 2.04,2013-11-03 01:29:00,
2013-11-02 20:34:00,65.5,30.6,30.18,NE,34,6.0,9.6,27,0.00,,,-99.99,FreeWX 2.04,2013-11-03 01:34:00,
2013-11-02 20:39:00,65.5,30.6,30.18,NE,36,6.0,9.6,27,0.00,,,-99.99,FreeWX 2.04,2013-11-03 01:39:00,
2013-11-02 20:44:00,65.3,30.4,30.18,NE,37,6.0,8.7,27,0.00,,,-99.99,FreeWX 2.04,2013-11-03 01:44:00,
2013-11-02 20:49:00,65.1,30.4,30.18,NE,37,6.0,9.6,27,0.00,,,-99.99,FreeWX 2.04,2013-11-03 01:49:00,
2013-11-02 20:54:00,65.1,30.4,30.18,NNE,33,7.0,9.2,27,0.00,,,-99.99,FreeWX 2.04,2013-11-03 01:54:00,
2013-11-02 20:59:00,65.1,31.3,30.18,NNE,29,7.0,10.1,28,0.00,,,-99.99,FreeWX 2.04,2013-11-03 01:59:00,
2013-11-02 21:04:00,64.9,31.1,30.18,NNE,31,7.0,11.2,28,0.00,,,-99.99,FreeWX 2.04,2013-11-03 02:04:00,
2013-11-02 21:09:00,64.9,31.1,30.18,NNE,29,8.0,11.2,28,0.00,,,-99.99,FreeWX 2.04,2013-11-03 02:09:00,
2013-11-02 21:14:00,64.9,31.1,30.18,NNE,28,8.0,11.0,28,0.00,,,-99.99,FreeWX 2.04,2013-11-03 02:14:00,
2013-11-02 21:19:00,64.8,30.0,30.18,NNE,29,8.0,11.2,27,0.00,,,-99.99,FreeWX 2.04,2013-11-03 02:19:00,
2013-11-02 21:24:00,64.8,30.0,30.18,NNE,29,9.0,14.3,27,0.00,,,-99.99,FreeWX 2.04,2013-11-03 02:24:00,
2013-11-02 21:29:00,64.9,30.2,30.18,NNE,33,9.0,13.4,27,0.00,,,-99.99,FreeWX 2.04,2013-11-03 02:29:00,
2013-11-02 21:34:00,64.9,30.2,30.18,NE,38,9.0,13.0,27,0.00,,,-99.99,FreeWX 2.04,2013-11-03 02:34:00,
2013-11-02 21:39:00,64.9,29.3,30.18,NE,37,9.0,13.4,26,0.00,,,-99.99,FreeWX 2.04,2013-11-03 02:39:00,
2013-11-02 21:44:00,64.9,29.3,30.18,NE,34,9.0,12.1,26,0.00,,,-99.99,FreeWX 2.04,2013-11-03 02:44:00,
2013-11-02 21:49:00,64.8,29.1,30.18,NNE,32,9.0,13.9,26,0.00,,,-99.99,FreeWX 2.04,2013-11-03 02:49:00,
2013-11-02 21:54:00,64.8,29.1,30.18,NNE,31,9.0,13.4,26,0.00,,,-99.99,FreeWX 2.04,2013-11-03 02:54:00,
2013-11-02 21:59:00,64.6,28.9,30.18,NNE,32,9.0,12.5,26,0.00,,,-99.99,FreeWX 2.04,2013-11-03 02:59:00,
2013-11-02 22:04:00,64.4,28.8,30.18,NNE,32,8.0,12.5,26,0.00,,,-99.99,FreeWX 2.04,2013-11-03 03:04:00,
2013-11-02 22:09:00,64.2,29.5,30.18,NNE,31,8.0,12.1,27,0.00,,,-99.99,FreeWX 2.04,2013-11-03 03:09:00,
2013-11-02 22:14:00,64.0,29.3,30.18,NNE,33,8.0,11.6,27,0.00,,,-99.99,FreeWX 2.04,2013-11-03 03:14:00,
2013-11-02 22:19:00,64.0,29.3,30.18,NNE,33,9.0,11.6,27,0.00,,,-99.99,FreeWX 2.04,2013-11-03 03:19:00,
2013-11-02 22:24:00,63.9,29.3,30.18,NNE,32,9.0,12.1,27,0.00,,,-99.99,FreeWX 2.04,2013-11-03 03:24:00,
2013-11-02 22:29:00,63.9,29.3,30.18,NNE,29,9.0,13.0,27,0.00,,,-99.99,FreeWX 2.04,2013-11-03 03:29:00,
2013-11-02 22:34:00,63.7,30.0,30.18,NNE,26,9.0,13.0,28,0.00,,,-99.99,FreeWX 2.04,2013-11-03 03:34:00,
2013-11-02 22:39:00,63.5,29.8,30.18,NNE,21,9.0,12.5,28,0.00,,,-99.99,FreeWX 2.04,2013-11-03 03:39:00,
2013-11-02 22:44:00,63.5,30.7,30.18,NNE,15,9.0,13.0,29,0.00,,,-99.99,FreeWX 2.04,2013-11-03 03:44:00,
2013-11-02 22:49:00,63.3,31.3,30.18,NNE,14,9.0,12.1,30,0.00,,,-99.99,FreeWX 2.04,2013-11-03 03:49:00,
2013-11-02 22:54:00,63.1,31.3,30.18,NNE,20,8.0,11.0,30,0.00,,,-99.99,FreeWX 2.04,2013-11-03 03:54:00,
2013-11-02 22:59:00,63.1,31.3,30.18,NNE,29,8.0,12.5,30,0.00,,,-99.99,FreeWX 2.04,2013-11-03 03:59:00,
2013-11-02 23:04:00,63.0,31.1,30.18,NNE,30,9.0,11.6,30,0.00,,,-99.99,FreeWX 2.04,2013-11-03 04:04:00,
2013-11-02 23:09:00,63.0,30.2,30.18,NNE,28,9.0,13.4,29,0.00,,,-99.99,FreeWX 2.04,2013-11-03 04:09:00,
2013-11-02 23:14:00,63.0,31.1,30.18,NNE,28,9.0,13.4,30,0.00,,,-99.99,FreeWX 2.04,2013-11-03 04:14:00,
2013-11-02 23:19:00,63.0,31.8,30.18,NNE,23,10.0,13.9,31,0.00,,,-99.99,FreeWX 2.04,2013-11-03 04:19:00,
2013-11-02 23:24:00,63.1,32.7,30.18,NNE,19,10.0,13.4,32,0.00,,,-99.99,FreeWX 2.04,2013-11-03 04:24:00,
2013-11-02 23:29:00,63.0,31.8,30.18,NNE,24,10.0,14.8,31,0.00,,,-99.99,FreeWX 2.04,2013-11-03 04:29:00,
2013-11-02 23:34:00,63.0,31.8,30.18,NNE,28,10.0,13.0,31,0.00,,,-99.99,FreeWX 2.04,2013-11-03 04:34:00,
2013-11-02 23:39:00,62.8,30.9,30.18,NNE,33,9.0,11.6,30,0.00,,,-99.99,FreeWX 2.04,2013-11-03 04:39:00,
2013-11-02 23:44:00,62.6,30.7,30.18,NE,38,9.0,14.8,30,0.00,,,-99.99,FreeWX 2.04,2013-11-03 04:44:00,
2013-11-02 23:49:00,62.6,29.8,30.18,NE,38,9.0,15.4,29,0.00,,,-99.99,FreeWX 2.04,2013-11-03 04:49:00,
2013-11-02 23:54:00,62.6,29.1,30.18,NE,38,9.0,13.0,28,0.00,,,-99.99,FreeWX 2.04,2013-11-03 04:54:00,
2013-11-02 23:59:00,62.6,29.1,30.18,NE,42,9.0,13.9,28,0.00,,,-99.99,FreeWX 2.04,2013-11-03 04:59:00,